Location: Newark
(48.9886°N, 1.2358°E)
Time: 07:21:59
(UTC+00:00)

Transit 4A - Pass Details

Date: 28 November 2019
Orbit: 870 x 975 km, 66.8° (Epoch: 13 December)

Event Time Altitude Azimuth Distance (km) Brightness Sun altitude
Exits shadow 03:17:27 28° 88° (E) 1,605 9.5 -39.5°
Drops below altitude 10° 03:20:30 10° 110° (ESE) 2,521 10.7 -39.0°
Sets 03:23:08 0° 118° (ESE) 3,452 11.5 -38.6°
